Flag for Cabo Verde Weather past 2 weeks in Santa Maria, Cabo Verde

Now
70 °F

Sunny.


Feels Like: 70 °F
Forecast: 64 / 75 °F
Wind: 17 mph from Northeast

Location: Sal

Current Time: Mar 2, 2015 at 12:16:00 PM

Latest Report: Mar 2, 2015 at 11:00 AM


Visibility: 6 mi

Pressure: 30.07 "Hg

Humidity: 78%

Dew point: 63 °F

Location of Santa MariaLocation

Historic Weather in Santa Maria — Graph

°F

Santa Maria temperature yesterday

Maximum temperature yesterday: 73 °F (at 12:00 PM)
Minimum temperature yesterday: 64 °F (at 2:00 AM)
Average temperature yesterday: 68 °F

Past Weeks' High & Low Weather Summary

 TemperatureHumidityPressure
High79 °F (Feb 27, 1:00 PM)94% (Feb 17, 12:00 AM)30.12 "Hg (Feb 17, 12:00 AM)
Low64 °F (Feb 19, 2:00 AM)47% (Feb 20, 12:00 PM)29.92 "Hg (Feb 26, 3:00 PM)
Average69 °F71%30.04 "Hg
* Reported Feb 15 11:00 AM — Mar 2 11:00 AM, Santa Maria, Weather by CustomWeather, © 2015

Note: Actual official high and low records may vary slightly from our data, if they occured in-between our weather recording intervals... More about our weather records

Advertising

Santa Maria weather history for previous 24 hours

 ConditionsComfort  
Time TempWeatherWind HumidityBarometerVisibility
11:00 AM
Mon, Mar 2
72 °FPartly sunny.17 mph73%30.07 "Hg6 mi
10:00 AM70 °FOvercast.17 mph78%30.07 "Hg6 mi
9:00 AM68 °FOvercast.16 mph83%30.07 "Hg6 mi
8:00 AM66 °FPartly sunny.16 mph83%30.04 "Hg6 mi
7:00 AM64 °FPartly sunny.13 mph88%30.04 "Hg5 mi
6:00 AM64 °FPartly sunny.14 mph88%30.01 "Hg5 mi
5:00 AM64 °FPartly sunny.13 mph88%30.01 "Hg5 mi
4:00 AM64 °FPartly cloudy.14 mph88%30.01 "Hg5 mi
3:00 AM66 °FPassing clouds.12 mph83%30.04 "Hg5 mi
2:00 AM66 °FPassing clouds.14 mph83%30.04 "Hg5 mi
1:00 AM66 °FPassing clouds.14 mph83%30.07 "Hg5 mi
12:00 AM66 °FPartly cloudy.13 mph83%30.07 "Hg5 mi
11:00 PM
Sun, Mar 1
66 °FPartly cloudy.15 mph83%30.07 "Hg5 mi
10:00 PM66 °FPassing clouds.16 mph83%30.07 "Hg6 mi
9:00 PM66 °FMostly cloudy.18 mph83%30.04 "Hg5 mi
8:00 PM66 °FMostly cloudy.21 mph83%30.01 "Hg5 mi
7:00 PM68 °FOvercast.18 mph78%30.01 "Hg5 mi
6:00 PM68 °FPassing clouds.18 mph78%29.98 "Hg6 mi
5:00 PM72 °FPassing clouds.21 mph69%29.98 "Hg6 mi
4:00 PM72 °FClear.21 mph69%30.01 "Hg6 mi
3:00 PM73 °FClear.23 mph65%30.01 "Hg6 mi
2:00 PM72 °FClear.22 mph65%30.04 "Hg6 mi
1:00 PM72 °FPartly sunny.24 mph65%30.07 "HgN/A
12:00 PM73 °FPartly sunny.23 mph65%30.09 "HgN/A
Weather by CustomWeather, © 2015

See weather overviewHow to use our weather pages